Liberia, Costa Rica

5:53 AM CST on March 24, 2017 (GMT -0600)
Daniel Oduber Quiros International

Weather History for MRLB - April, 2014

Change the Weather History Date:

Thursday, April 17, 2014

  Actual Average Record
Temperature  
Mean Temperature 88 °F -  
Max Temperature 98 °F 91 °F 100 °F (1998)
Min Temperature 79 °F 76 °F 68 °F (2011)
Cooling Degree Days 24    
Growing Degree Days 38 (Base 50)    
Moisture  
Dew Point 58 °F    
Average Humidity 33    
Maximum Humidity 58    
Minimum Humidity 13    
Precipitation  
Precipitation 0.00 in - - ()
Sea Level Pressure  
Sea Level Pressure 29.80 in    
Wind  
Wind Speed 14 mph ()    
Max Wind Speed 23 mph    
Max Gust Speed 32 mph    
Visibility 9.4 miles    
Events      
Averages and records for this station are not official NWS values.
T = Trace of Precipitation, MM = Missing Value Source: Averaged Metar Reports

Daily Weather History Graph

Daily Weather History Graph

Search for Another Location

Airport or City:

Trip Planner

Search our weather history database for the weather conditions in past years. The results will help you decide how hot, cold, wet, or windy it might be!

Date:

Astronomy

Apr. 17, 2014 Rise Set
Actual Time 5:30 AM CST 5:53 PM CST
Civil Twilight 5:08 AM CST 6:14 PM CST
Nautical Twilight 4:43 AM CST 6:39 PM CST
Astronomical Twilight 4:18 AM CST 7:04 PM CST
Moon 8:16 PM CST (4/17) 7:20 AM CST (4/17)
Length of Visible Light 13h 05m
Length of Day
12h 22m
Waning Gibbous, 93% of the Moon is Illuminated
Apr 17
Waning Gibbous
Apr 22
Last Quarter
Apr 29
New
May 6
First Quarter
May 14
Full

Hourly Weather History & Observations

Time (CST) Temp. Heat Index Dew Point Humidity Pressure Visibility Wind Dir Wind Speed Gust Speed Precip Events Conditions
6:00 AM 82 °F - 65 °F 48% 29.81 in 12 mi ENE 12.7 mph - -   Clear
6:00 AM 82.4 °F 84.6 °F 66.2 °F 58% 29.81 in - ENE 12.7 mph - N/A   Clear
7:00 AM 84.2 °F 85.6 °F 64.4 °F 51% 29.83 in - NE 5.8 mph - N/A   Clear
8:00 AM 86.0 °F 87.3 °F 64.4 °F 48% 29.84 in - East 20.7 mph - N/A   Clear
9:00 AM 88 °F - 63 °F 33% 29.85 in 12 mi East 18.4 mph - -   Clear
9:00 AM 87.8 °F 88.5 °F 62.6 °F 43% 29.84 in - East 18.4 mph - N/A   Clear
10:00 AM 89.6 °F 89.5 °F 60.8 °F 38% 29.84 in - East 16.1 mph 27.6 mph N/A   Clear
11:00 AM 93.2 °F 91.9 °F 57.2 °F 30% 29.82 in - East 20.7 mph 32.2 mph N/A   Clear
12:00 PM 94 °F - 60 °F 23% 29.82 in 12 mi East 18.4 mph - -   Scattered Clouds
12:00 PM 95.0 °F 95.2 °F 60.8 °F 32% 29.82 in 6.2 mi East 18.4 mph - N/A   Scattered Clouds
1:00 PM 96.8 °F 96.2 °F 59.0 °F 28% 29.79 in 6.2 mi ENE 19.6 mph - N/A   Scattered Clouds
2:00 PM 96.8 °F 95.1 °F 55.4 °F 25% 29.76 in 6.2 mi East 20.7 mph - N/A   Mostly Cloudy
3:00 PM 97 °F - 51 °F 13% 29.77 in 12 mi ENE 19.6 mph - -   Overcast
3:00 PM 96.8 °F - 51.8 °F 22% 29.75 in 6.2 mi ENE 19.6 mph - N/A   Overcast
4:00 PM 95.0 °F - 51.8 °F 23% 29.74 in - ENE 23.0 mph - N/A   Clear
5:00 PM 91.4 °F 89.1 °F 53.6 °F 28% 29.75 in - ENE 19.6 mph - N/A   Clear
6:00 PM 89 °F - 54 °F 21% 29.79 in 12 mi ENE 18.4 mph - -   Clear
6:00 PM 87.8 °F 85.7 °F 53.6 °F 31% 29.76 in - ENE 18.4 mph - N/A   Clear
7:00 PM 86.0 °F 84.2 °F 53.6 °F 33% 29.78 in - East 18.4 mph - N/A   Clear
8:00 PM 84.2 °F 83.0 °F 55.4 °F 37% 29.79 in - East 15.0 mph - N/A   Clear